PGT7SP LTFJ-LTCE

Flight info

Callsign PGT7SP
Flight time N/A
Altitude 37000
Route VICEN1K/24R VICEN UT380 ASMAP UL333 LATGA UT363 GURBU UL615 DAMAT
Aircraft A320/M-SDE3FGHIRWY/LB1

Departure

Time 2026-05-07 16:41
Airport Istanbul Sabiha Gökçen International Airport (LTFJ)

Arrival

Time N/A
Airport Erzurum International Airport (LTCE)
Time Latitude Longitude Altitude Speed Heading
2026-05-07 16:27 40.90417 29.31588 311 ft 0 kts 154°
2026-05-07 16:34 40.90422 29.31585 310 ft 5 kts 154°
2026-05-07 16:35 40.90432 29.31578 309 ft 0 kts 154°
2026-05-07 16:35 40.90467 29.31556 310 ft 7 kts 162°
2026-05-07 16:35 40.90490 29.31552 310 ft 0 kts 245°
2026-05-07 16:37 40.90481 29.31524 311 ft 5 kts 246°
2026-05-07 16:37 40.90468 29.31487 311 ft 4 kts 246°
2026-05-07 16:37 40.90458 29.31458 311 ft 5 kts 241°
2026-05-07 16:37 40.90389 29.31448 311 ft 14 kts 150°
2026-05-07 16:38 40.90306 29.31519 311 ft 15 kts 123°
2026-05-07 16:38 40.90328 29.31638 311 ft 13 kts 63°
2026-05-07 16:38 40.90368 29.31743 311 ft 14 kts 64°
2026-05-07 16:38 40.90424 29.31897 311 ft 20 kts 64°
2026-05-07 16:39 40.90488 29.32071 311 ft 22 kts 64°
2026-05-07 16:39 40.90557 29.32258 310 ft 23 kts 64°
2026-05-07 16:39 40.90567 29.32422 310 ft 18 kts 136°
2026-05-07 16:39 40.90449 29.32481 312 ft 18 kts 194°
2026-05-07 16:40 40.90376 29.32334 313 ft 29 kts 243°
2026-05-07 16:40 40.90173 29.31786 313 ft 100 kts 244°
2026-05-07 16:40 40.89780 29.30722 313 ft 155 kts 243°
2026-05-07 16:40 40.89275 29.29340 644 ft 177 kts 244°
2026-05-07 16:41 40.88736 29.27770 1064 ft 201 kts 246°
2026-05-07 16:41 40.88147 29.26016 1722 ft 216 kts 247°
2026-05-07 16:41 40.87479 29.24119 2235 ft 238 kts 245°
2026-05-07 16:41 40.86738 29.22113 3097 ft 245 kts 244°
2026-05-07 16:42 40.85982 29.20078 3770 ft 249 kts 245°
2026-05-07 16:42 40.85217 29.18005 4572 ft 250 kts 246°
2026-05-07 16:42 40.84252 29.16079 5507 ft 259 kts 224°
2026-05-07 16:42 40.82620 29.14936 6237 ft 277 kts 198°
2026-05-07 16:43 40.80659 29.14816 7009 ft 290 kts 169°
2026-05-07 16:43 40.78830 29.15963 7815 ft 298 kts 138°
2026-05-07 16:43 40.77642 29.18176 8683 ft 299 kts 107°
2026-05-07 16:43 40.77262 29.20858 9573 ft 298 kts 94°
2026-05-07 16:44 40.77027 29.23598 10342 ft 307 kts 93°
2026-05-07 16:44 40.76791 29.26501 10634 ft 331 kts 93°
2026-05-07 16:44 40.76539 29.29610 11026 ft 348 kts 94°
2026-05-07 16:44 40.76268 29.32818 11721 ft 355 kts 94°
2026-05-07 16:45 40.75982 29.36070 12485 ft 359 kts 94°
2026-05-07 16:45 40.75785 29.38249 12985 ft 362 kts 94°
2026-05-07 16:45 40.75483 29.41557 13722 ft 366 kts 94°
2026-05-07 16:45 40.75073 29.46039 14635 ft 371 kts 94°
2026-05-07 16:46 40.74869 29.48274 15074 ft 373 kts 94°
2026-05-07 16:46 40.74559 29.51692 15744 ft 377 kts 94°
2026-05-07 16:46 40.74247 29.55138 16403 ft 380 kts 94°
2026-05-07 16:46 40.73932 29.58608 17040 ft 384 kts 94°
2026-05-07 16:47 40.73615 29.62117 17701 ft 387 kts 94°
2026-05-07 16:47 40.73295 29.65660 18339 ft 391 kts 94°
2026-05-07 16:47 40.72967 29.69230 18888 ft 394 kts 94°
2026-05-07 16:47 40.72634 29.72836 19418 ft 398 kts 94°
2026-05-07 16:48 40.72298 29.76473 19952 ft 401 kts 94°
2026-05-07 16:48 40.71960 29.80147 20484 ft 405 kts 94°
2026-05-07 16:48 40.71617 29.83854 21007 ft 408 kts 94°
2026-05-07 16:48 40.71271 29.87577 21514 ft 412 kts 94°
2026-05-07 16:49 40.70920 29.91338 22031 ft 415 kts 94°
2026-05-07 16:49 40.70567 29.95138 22528 ft 419 kts 94°
2026-05-07 16:49 40.70206 29.98968 23024 ft 422 kts 94°
2026-05-07 16:49 40.69838 30.02818 23506 ft 426 kts 94°
2026-05-07 16:50 40.69471 30.06654 23941 ft 429 kts 94°
2026-05-07 16:50 40.69096 30.10567 24355 ft 432 kts 94°
2026-05-07 16:50 40.68716 30.14499 24774 ft 434 kts 94°
2026-05-07 16:50 40.68335 30.18461 25189 ft 437 kts 94°
2026-05-07 16:51 40.67954 30.22439 25600 ft 439 kts 94°
2026-05-07 16:51 40.67569 30.26452 25997 ft 442 kts 94°
2026-05-07 16:51 40.67180 30.30470 26400 ft 444 kts 94°
2026-05-07 16:51 40.66786 30.34516 26776 ft 447 kts 94°
2026-05-07 16:52 40.66387 30.38582 27168 ft 449 kts 95°
2026-05-07 16:52 40.65986 30.42666 27549 ft 451 kts 95°
2026-05-07 16:52 40.65579 30.46784 27905 ft 454 kts 95°
2026-05-07 16:52 40.65167 30.50912 28285 ft 457 kts 95°
2026-05-07 16:53 40.64751 30.55078 28655 ft 459 kts 95°
2026-05-07 16:53 40.64335 30.59246 29008 ft 461 kts 95°
2026-05-07 16:53 40.63914 30.63449 29338 ft 464 kts 95°
2026-05-07 16:53 40.63488 30.67676 29656 ft 466 kts 95°
2026-05-07 16:54 40.62963 30.71901 29977 ft 471 kts 101°
2026-05-07 16:54 40.62112 30.76064 30268 ft 474 kts 103°
2026-05-07 16:54 40.61223 30.80260 30527 ft 476 kts 103°
2026-05-07 16:54 40.60332 30.84463 30777 ft 478 kts 103°
2026-05-07 16:55 40.59438 30.88684 31067 ft 479 kts 103°
2026-05-07 16:55 40.58544 30.92894 31440 ft 478 kts 103°
2026-05-07 16:55 40.57645 30.97103 31794 ft 477 kts 103°
2026-05-07 16:55 40.56745 31.01306 32175 ft 477 kts 103°
2026-05-07 16:56 40.55845 31.05496 32582 ft 476 kts 103°
2026-05-07 16:56 40.54950 31.09678 32965 ft 475 kts 103°
2026-05-07 16:56 40.53171 31.18024 33755 ft 473 kts 103°
2026-05-07 16:57 40.52276 31.22192 34106 ft 473 kts 103°
2026-05-07 16:57 40.51379 31.26349 34416 ft 473 kts 103°
2026-05-07 16:57 40.50482 31.30503 34704 ft 473 kts 103°
2026-05-07 16:57 40.49581 31.34663 34995 ft 473 kts 103°
2026-05-07 16:58 40.48680 31.38815 35277 ft 473 kts 103°
2026-05-07 16:58 40.47774 31.42971 35527 ft 474 kts 103°
2026-05-07 16:58 40.46864 31.47136 35794 ft 473 kts 103°
2026-05-07 16:58 40.45956 31.51288 36044 ft 473 kts 103°
2026-05-07 16:59 40.45050 31.55442 36293 ft 474 kts 103°
2026-05-07 16:59 40.44141 31.59606 36518 ft 474 kts 103°
2026-05-07 16:59 40.43235 31.63764 36779 ft 474 kts 103°
2026-05-07 16:59 40.42328 31.67922 37028 ft 474 kts 103°
2026-05-07 17:00 40.41416 31.72081 37143 ft 474 kts 103°
2026-05-07 17:00 40.40503 31.76229 37168 ft 474 kts 104°
2026-05-07 17:00 40.38665 31.84529 37169 ft 474 kts 104°
2026-05-07 17:01 40.36819 31.92828 37165 ft 474 kts 104°
2026-05-07 17:01 40.34969 32.01134 37167 ft 474 kts 104°
2026-05-07 17:02 40.33102 32.09431 37169 ft 475 kts 104°
2026-05-07 17:02 40.31363 32.17776 37175 ft 474 kts 102°
2026-05-07 17:03 40.29768 32.26157 37171 ft 474 kts 101°
2026-05-07 17:03 40.28151 32.34546 37174 ft 474 kts 102°
2026-05-07 17:04 40.26486 32.42905 37167 ft 474 kts 102°
2026-05-07 17:04 40.24802 32.51263 37168 ft 475 kts 102°
2026-05-07 17:05 40.23123 32.59617 37164 ft 475 kts 102°
2026-05-07 17:05 40.21431 32.67988 37165 ft 475 kts 102°
2026-05-07 17:06 40.19744 32.76354 37162 ft 476 kts 102°
2026-05-07 17:06 40.18045 32.84730 37172 ft 477 kts 102°
2026-05-07 17:07 40.16325 32.93115 37160 ft 477 kts 103°
2026-05-07 17:07 40.14896 33.01480 37166 ft 474 kts 92°
2026-05-07 17:08 40.14937 33.10049 37163 ft 470 kts 84°
2026-05-07 17:08 40.15195 33.18584 37171 ft 470 kts 84°
2026-05-07 17:09 40.15426 33.27137 37171 ft 470 kts 85°
2026-05-07 17:09 40.15656 33.35691 37167 ft 470 kts 85°
2026-05-07 17:10 40.15881 33.44233 37161 ft 470 kts 85°
2026-05-07 17:10 40.16101 33.52779 37160 ft 470 kts 85°
2026-05-07 17:11 40.16323 33.61335 37156 ft 470 kts 85°
2026-05-07 17:11 40.16536 33.69867 37152 ft 470 kts 85°
2026-05-07 17:12 40.16739 33.78377 37152 ft 470 kts 85°
2026-05-07 17:12 40.16371 33.86919 37137 ft 474 kts 98°
2026-05-07 17:13 40.15182 33.95408 37143 ft 474 kts 98°
2026-05-07 17:13 40.14142 34.03913 37141 ft 474 kts 95°
2026-05-07 17:14 40.13285 34.12445 37147 ft 473 kts 95°
2026-05-07 17:14 40.12425 34.20978 37139 ft 474 kts 95°
2026-05-07 17:15 40.11496 34.29504 37155 ft 474 kts 96°
2026-05-07 17:15 40.10526 34.38032 37146 ft 474 kts 96°
2026-05-07 17:16 40.09562 34.46554 37157 ft 474 kts 96°
2026-05-07 17:16 40.08604 34.55071 37154 ft 474 kts 96°
2026-05-07 17:17 40.07646 34.63593 37157 ft 474 kts 96°
2026-05-07 17:17 40.06685 34.72118 37162 ft 474 kts 96°
2026-05-07 17:18 40.05710 34.80636 37168 ft 474 kts 96°
2026-05-07 17:18 40.04723 34.89147 37158 ft 474 kts 96°
2026-05-07 17:19 40.03738 34.97660 37164 ft 474 kts 96°
2026-05-07 17:19 40.02747 35.06168 37163 ft 474 kts 97°
2026-05-07 17:20 40.01747 35.14672 37164 ft 474 kts 97°
2026-05-07 17:20 40.00743 35.23179 37156 ft 474 kts 97°
2026-05-07 17:21 39.99734 35.31619 37163 ft 474 kts 97°
2026-05-07 17:21 39.98707 35.40110 37157 ft 474 kts 97°
2026-05-07 17:22 39.97643 35.48611 37165 ft 474 kts 97°
2026-05-07 17:22 39.96565 35.57086 37165 ft 474 kts 97°
2026-05-07 17:23 39.95473 35.65573 37169 ft 474 kts 98°
2026-05-07 17:23 39.94378 35.74048 37171 ft 474 kts 98°
2026-05-07 17:24 39.93288 35.82533 37177 ft 474 kts 98°
2026-05-07 17:24 39.92195 35.91016 37180 ft 474 kts 98°
2026-05-07 17:25 39.91101 35.99431 37187 ft 474 kts 98°
2026-05-07 17:25 39.89983 36.07907 37184 ft 474 kts 98°
2026-05-07 17:26 39.88864 36.16373 37196 ft 474 kts 98°
2026-05-07 17:26 39.87743 36.24836 37190 ft 474 kts 98°
2026-05-07 17:27 39.86584 36.33291 37187 ft 474 kts 99°
2026-05-07 17:27 39.85355 36.41724 37190 ft 475 kts 99°
2026-05-07 17:28 39.84210 36.50187 37213 ft 475 kts 98°
2026-05-07 17:28 39.83294 36.57231 37225 ft 475 kts 98°
2026-05-07 17:29 39.82177 36.65693 37223 ft 475 kts 98°
2026-05-07 17:29 39.81033 36.74159 37249 ft 475 kts 99°
2026-05-07 17:30 39.79867 36.82618 37254 ft 475 kts 99°
2026-05-07 17:30 39.79161 36.91131 37260 ft 473 kts 86°
2026-05-07 17:31 39.79807 36.99606 37255 ft 471 kts 82°
2026-05-07 17:31 39.80503 37.08100 37249 ft 472 kts 82°
2026-05-07 17:32 39.81183 37.16602 37228 ft 472 kts 82°
2026-05-07 17:32 39.81860 37.25091 37215 ft 472 kts 82°
2026-05-07 17:33 39.82531 37.33587 37210 ft 472 kts 83°
2026-05-07 17:33 39.83209 37.42095 37202 ft 472 kts 83°
2026-05-07 17:34 39.83870 37.50594 37202 ft 472 kts 83°
2026-05-07 17:34 39.84517 37.59090 37201 ft 472 kts 83°
2026-05-07 17:35 39.85158 37.67585 37200 ft 472 kts 83°
2026-05-07 17:35 39.85796 37.76076 37095 ft 471 kts 83°
2026-05-07 17:36 39.86424 37.84529 37194 ft 469 kts 82°
2026-05-07 17:36 39.87040 37.92983 37201 ft 469 kts 83°
2026-05-07 17:37 39.87648 38.01426 37200 ft 468 kts 83°
2026-05-07 17:37 39.88266 38.09865 37202 ft 468 kts 83°
2026-05-07 17:38 39.88883 38.18286 37199 ft 468 kts 83°
2026-05-07 17:38 39.89485 38.26726 37194 ft 468 kts 83°
2026-05-07 17:39 39.90081 38.35157 37192 ft 467 kts 83°
2026-05-07 17:39 39.90670 38.43585 37189 ft 467 kts 83°
2026-05-07 17:40 39.91257 38.52016 37189 ft 468 kts 83°
2026-05-07 17:40 39.91834 38.60456 37192 ft 468 kts 83°
2026-05-07 17:41 39.92401 38.68832 37183 ft 468 kts 83°
2026-05-07 17:41 39.92970 38.77355 37183 ft 468 kts 84°
2026-05-07 17:42 39.93522 38.85747 37183 ft 468 kts 84°
2026-05-07 17:42 39.93950 38.94221 37183 ft 469 kts 87°
2026-05-07 17:43 39.94055 39.02722 37181 ft 469 kts 89°
2026-05-07 17:43 39.94079 39.11239 37188 ft 470 kts 88°
2026-05-07 17:44 39.94181 39.19748 37190 ft 470 kts 88°
2026-05-07 17:44 39.94332 39.28265 37194 ft 470 kts 88°
2026-05-07 17:45 39.94479 39.36790 37197 ft 470 kts 88°
2026-05-07 17:45 39.94600 39.45317 37200 ft 471 kts 88°
2026-05-07 17:46 39.94708 39.53853 37202 ft 471 kts 89°
2026-05-07 17:46 39.94811 39.62389 37200 ft 471 kts 89°
2026-05-07 17:47 39.94913 39.70928 37192 ft 472 kts 89°
2026-05-07 17:47 39.94962 39.75152 36959 ft 472 kts 89°
2026-05-07 17:47 39.95012 39.79419 36709 ft 471 kts 89°
2026-05-07 17:48 39.95060 39.83690 36460 ft 471 kts 89°
2026-05-07 17:48 39.95107 39.87956 36220 ft 471 kts 89°
2026-05-07 17:48 39.95153 39.92219 35977 ft 471 kts 89°
2026-05-07 17:48 39.95194 39.96487 35733 ft 471 kts 89°
2026-05-07 17:49 39.95230 40.00748 35500 ft 471 kts 89°
2026-05-07 17:49 39.95264 40.05015 35267 ft 471 kts 89°
2026-05-07 17:49 39.95293 40.09276 35037 ft 471 kts 89°
2026-05-07 17:49 39.95322 40.13542 34802 ft 471 kts 89°
2026-05-07 17:50 39.95352 40.17813 34580 ft 471 kts 89°
2026-05-07 17:50 39.95384 40.22088 34348 ft 471 kts 89°
2026-05-07 17:50 39.95417 40.26349 34112 ft 472 kts 89°
2026-05-07 17:50 39.95450 40.30635 33836 ft 472 kts 89°
2026-05-07 17:51 39.95482 40.34913 33007 ft 475 kts 89°
2026-05-07 17:51 39.95508 40.39236 32031 ft 479 kts 89°
2026-05-07 17:51 39.95529 40.43540 31476 ft 472 kts 89°
2026-05-07 17:51 39.95549 40.47813 30821 ft 469 kts 89°
2026-05-07 17:52 39.95567 40.52041 30160 ft 465 kts 89°
2026-05-07 17:52 39.95583 40.56238 29475 ft 460 kts 89°
2026-05-07 17:52 39.95597 40.60372 28866 ft 454 kts 89°
2026-05-07 17:52 39.95746 40.64448 28251 ft 447 kts 81°